When you browse on this site, cookies collect data to enhance your experience and personalize the content and advertising you see.
Visit our Privacy Policy to learn more. By continuing to use the site, you agree to this use of cookies and data.
  • In Hungary
  • List of Countries
  • For 7 days
  • Water Temperature
  • Satellite Maps
  • Weather Map
  • News
  • Weather Widgets
  • user-avatar
    Login

    Hourly Weather Gesiarnia

    Today, 25 May, Saturday

    Time Temperature Precipitation Wind Pressure Humidity
    00:00 +12°C° 0 mm 2 mps 742 mmHg 92%
    01:00 +12°C° 0 mm 2 mps 742 mmHg 93%
    02:00 +10°C° 0 mm 2 mps 742 mmHg 93%
    03:00 +10°C° 0 mm 2 mps 742 mmHg 93%
    04:00 +10°C° 0 mm 2 mps 742 mmHg 93%
    05:00 +12°C° 0 mm 2 mps 742 mmHg 90%
    06:00 +14°C° 0 mm 2 mps 742 mmHg 86%
    07:00 +15°C° 0 mm 2 mps 742 mmHg 82%
    08:00 +17°C° 0 mm 2 mps 742 mmHg 75%
    09:00 +18°C° 0 mm 3 mps 742 mmHg 67%
    10:00 +20°C° 0 mm 3 mps 742 mmHg 60%
    11:00 +20°C° 0 mm 3 mps 742 mmHg 58%
    12:00 +21°C° 0 mm 3 mps 742 mmHg 56%
    13:00 +22°C° 0 mm 3 mps 742 mmHg 54%
    14:00 +22°C° 0 mm 3 mps 742 mmHg 56%
    15:00 +22°C° 0 mm 3 mps 742 mmHg 57%
    16:00 +23°C° 0 mm 2 mps 742 mmHg 58%
    17:00 +20°C° 0.1 mm 2 mps 742 mmHg 64%
    18:00 +19°C° 0.1 mm 2 mps 742 mmHg 70%
    19:00 +18°C° 0.1 mm 1 mps 742 mmHg 76%
    20:00 +16°C° 0 mm 1 mps 742 mmHg 79%
    21:00 +15°C° 0 mm 1 mps 742 mmHg 82%
    22:00 +14°C° 0 mm 1 mps 743 mmHg 86%
    23:00 +14°C° 0 mm 1 mps 743 mmHg 86%

    Tomorrow, 26 May, Sunday

    Time Temperature Precipitation Wind Pressure Humidity
    00:00 +13°C° 0 mm 1 mps 743 mmHg 87%
    01:00 +13°C° 0 mm 1 mps 743 mmHg 88%
    02:00 +13°C° 0 mm 1 mps 743 mmHg 87%
    03:00 +13°C° 0 mm 1 mps 743 mmHg 87%
    04:00 +12°C° 0 mm 1 mps 743 mmHg 87%
    05:00 +14°C° 0 mm 1 mps 743 mmHg 84%
    06:00 +16°C° 0 mm 1 mps 743 mmHg 80%
    07:00 +18°C° 0 mm 1 mps 743 mmHg 76%
    08:00 +19°C° 0.1 mm 2 mps 743 mmHg 73%
    09:00 +20°C° 0.1 mm 2 mps 743 mmHg 70%
    10:00 +21°C° 0.1 mm 2 mps 743 mmHg 67%
    11:00 +23°C° 0.1 mm 2 mps 743 mmHg 67%
    12:00 +23°C° 0.1 mm 2 mps 743 mmHg 66%
    13:00 +23°C° 0.1 mm 2 mps 742 mmHg 66%
    14:00 +23°C° 0.4 mm 2 mps 742 mmHg 67%
    15:00 +23°C° 0.4 mm 2 mps 742 mmHg 69%
    16:00 +23°C° 0.4 mm 2 mps 742 mmHg 70%
    17:00 +21°C° 0.4 mm 2 mps 742 mmHg 75%
    18:00 +20°C° 0.4 mm 2 mps 742 mmHg 79%
    19:00 +19°C° 0.4 mm 1 mps 742 mmHg 84%
    20:00 +18°C° 0.1 mm 1 mps 742 mmHg 86%
    21:00 +17°C° 0.1 mm 2 mps 742 mmHg 88%
    22:00 +16°C° 0.1 mm 2 mps 743 mmHg 90%
    23:00 +15°C° 0 mm 2 mps 743 mmHg 91%

    Day after tomorrow, 27 May, Monday

    Time Temperature Precipitation Wind Pressure Humidity
    00:00 +15°C° 0 mm 2 mps 742 mmHg 91%
    01:00 +15°C° 0 mm 2 mps 742 mmHg 92%
    02:00 +14°C° 0 mm 2 mps 742 mmHg 92%
    03:00 +14°C° 0 mm 2 mps 742 mmHg 92%
    04:00 +14°C° 0 mm 2 mps 742 mmHg 92%
    05:00 +16°C° 0 mm 2 mps 742 mmHg 89%
    06:00 +17°C° 0 mm 2 mps 742 mmHg 86%
    07:00 +19°C° 0 mm 2 mps 742 mmHg 83%
    08:00 +20°C° 0.1 mm 2 mps 742 mmHg 77%
    09:00 +23°C° 0.1 mm 2 mps 742 mmHg 71%
    10:00 +24°C° 0.1 mm 2 mps 741 mmHg 65%
    11:00 +25°C° 0.1 mm 2 mps 741 mmHg 61%
    12:00 +26°C° 0.1 mm 2 mps 741 mmHg 57%
    13:00 +27°C° 0.1 mm 1 mps 741 mmHg 54%
    14:00 +26°C° 0.2 mm 2 mps 741 mmHg 59%
    15:00 +26°C° 0.2 mm 2 mps 741 mmHg 65%
    16:00 +25°C° 0.2 mm 2 mps 740 mmHg 70%
    17:00 +24°C° 0.3 mm 2 mps 740 mmHg 73%
    18:00 +22°C° 0.3 mm 1 mps 740 mmHg 76%
    19:00 +21°C° 0.3 mm 1 mps 740 mmHg 79%
    20:00 +20°C° 0 mm 1 mps 740 mmHg 81%
    21:00 +19°C° 0 mm 1 mps 740 mmHg 83%
    22:00 +18°C° 0 mm 1 mps 740 mmHg 85%
    23:00 +18°C° 1.1 mm 1 mps 740 mmHg 88%

    28 May, Tuesday

    Time Temperature Precipitation Wind Pressure Humidity
    00:00 +18°C° 1.1 mm 1 mps 740 mmHg 90%
    01:00 +18°C° 1.1 mm 1 mps 739 mmHg 93%
    02:00 +18°C° 0.8 mm 1 mps 739 mmHg 94%
    03:00 +18°C° 0.8 mm 1 mps 739 mmHg 95%
    04:00 +16°C° 0.8 mm 1 mps 738 mmHg 96%
    05:00 +19°C° 0 mm 1 mps 738 mmHg 93%
    06:00 +20°C° 0 mm 1 mps 738 mmHg 90%
    07:00 +20°C° 0 mm 2 mps 738 mmHg 88%
    08:00 +21°C° 0 mm 2 mps 738 mmHg 79%
    09:00 +24°C° 0 mm 2 mps 738 mmHg 71%
    10:00 +26°C° 0 mm 2 mps 738 mmHg 63%
    11:00 +26°C° 0.7 mm 2 mps 737 mmHg 66%
    12:00 +25°C° 0.7 mm 2 mps 737 mmHg 69%
    13:00 +25°C° 0.7 mm 2 mps 737 mmHg 72%
    14:00 +24°C° 2.3 mm 2 mps 736 mmHg 75%
    15:00 +24°C° 2.3 mm 2 mps 736 mmHg 78%
    16:00 +22°C° 2.3 mm 3 mps 736 mmHg 80%
    17:00 +21°C° 0.7 mm 2 mps 736 mmHg 84%
    18:00 +20°C° 0.7 mm 2 mps 736 mmHg 87%
    19:00 +19°C° 0.7 mm 2 mps 736 mmHg 90%
    20:00 +19°C° 1.1 mm 2 mps 736 mmHg 89%
    21:00 +18°C° 1.1 mm 2 mps 736 mmHg 88%
    22:00 +18°C° 1.1 mm 2 mps 736 mmHg 87%
    23:00 +17°C° 0 mm 2 mps 737 mmHg 89%

    29 May, Wednesday

    Time Temperature Precipitation Wind Pressure Humidity
    00:00 +16°C° 0 mm 2 mps 737 mmHg 91%
    01:00 +16°C° 0 mm 3 mps 737 mmHg 92%
    02:00 +16°C° 0.3 mm 3 mps 738 mmHg 94%
    03:00 +14°C° 0.3 mm 3 mps 738 mmHg 95%
    04:00 +15°C° 0.3 mm 2 mps 739 mmHg 97%
    05:00 +14°C° 1.7 mm 3 mps 739 mmHg 96%
    06:00 +14°C° 1.7 mm 4 mps 740 mmHg 95%
    07:00 +13°C° 1.7 mm 5 mps 741 mmHg 95%
    08:00 +13°C° 1.9 mm 5 mps 741 mmHg 94%
    09:00 +12°C° 1.9 mm 5 mps 742 mmHg 94%
    10:00 +10°C° 1.9 mm 5 mps 743 mmHg 94%
    11:00 +12°C° 0.6 mm 4 mps 743 mmHg 93%
    12:00 +12°C° 0.6 mm 4 mps 744 mmHg 92%
    13:00 +12°C° 0.6 mm 3 mps 745 mmHg 91%
    14:00 +12°C° 0.1 mm 3 mps 745 mmHg 90%
    15:00 +12°C° 0.1 mm 3 mps 745 mmHg 89%
    16:00 +14°C° 0.1 mm 2 mps 746 mmHg 89%
    17:00 +14°C° 0 mm 2 mps 746 mmHg 88%
    18:00 +14°C° 0 mm 2 mps 747 mmHg 88%
    19:00 +14°C° 0 mm 2 mps 747 mmHg 87%
    20:00 +13°C° 0 mm 2 mps 748 mmHg 88%
    21:00 +12°C° 0 mm 2 mps 748 mmHg 88%
    22:00 +12°C° 0 mm 2 mps 749 mmHg 89%
    23:00 +10°C° 0 mm 2 mps 749 mmHg 90%

    30 May, Thursday

    Time Temperature Precipitation Wind Pressure Humidity
    00:00 +9°C° 0 mm 2 mps 749 mmHg 91%
    01:00 +8°C° 0 mm 2 mps 749 mmHg 93%
    02:00 +8°C° 0 mm 2 mps 749 mmHg 93%
    03:00 +9°C° 0 mm 1 mps 750 mmHg 94%
    04:00 +8°C° 0 mm 1 mps 750 mmHg 94%
    05:00 +9°C° 0 mm 1 mps 750 mmHg 90%
    06:00 +9°C° 0 mm 2 mps 750 mmHg 85%
    07:00 +10°C° 0 mm 2 mps 750 mmHg 81%
    08:00 +11°C° 0.4 mm 1 mps 750 mmHg 78%
    09:00 +11°C° 0.4 mm 1 mps 750 mmHg 75%
    10:00 +12°C° 0.4 mm 1 mps 750 mmHg 72%
    11:00 +11°C° 0.7 mm 1 mps 750 mmHg 77%
    12:00 +11°C° 0.7 mm 1 mps 749 mmHg 81%
    13:00 +10°C° 0.7 mm 1 mps 749 mmHg 85%
    14:00 +11°C° 0 mm 1 mps 749 mmHg 82%
    15:00 +11°C° 0 mm 1 mps 749 mmHg 78%
    16:00 +11°C° 0 mm 1 mps 748 mmHg 75%
    17:00 +11°C° 0 mm 1 mps 748 mmHg 77%
    18:00 +10°C° 0 mm 0 mps 748 mmHg 78%
    19:00 +9°C° 0 mm 0 mps 748 mmHg 79%
    20:00 +9°C° 0 mm 0 mps 748 mmHg 78%
    21:00 +9°C° 0 mm 1 mps 748 mmHg 77%
    22:00 +9°C° 0 mm 1 mps 748 mmHg 77%
    23:00 +9°C° 0 mm 1 mps 748 mmHg 77%
    Show more